Zurück zum Katalog

STARLINK-32479

AktivKommunikationVLEO
NORAD 62148·PAYLOAD·🇺🇸 United States

Gestartet Nov 30, 2024 von Cape Canaveral Space Force Station

Loading…

Nächste Überflüge (nächste 24 Stunden)

TLE

AktuellSource: CelesTrak SupGP

Epoche: Sep 14, 2026, 22:41 UTC

1 62148C 24224K   26257.94562500 -.00036581  00000+0 -13249-2 0  2570
2 62148  43.0022 169.2733 0001475 266.0623 124.5551 15.27597522    16

Verfolge STARLINK-32479 in Echtzeit mit AllMySat

Download on the App Store